Location: Henham
(51.9333°N, 0.2500°E)
Time: 00:19:04
(UTC+00:00)

Resurs 01 Rocket - Pass Details

Date: 23 October 2019
Orbit: 633 x 645 km, 98.0° (Epoch: 22 November)

Event Time Altitude Azimuth Distance (km) Brightness Sun altitude
Exits shadow 19:53:25 21° 360° (N) 1,457 3.6 -28.8°
Drops below altitude 10° 19:54:58 10° 353° (N) 2,052 4.5 -29.0°
Sets 19:57:12 0° 349° (N) 2,965 5.4 -29.4°
